[[[{"header":{"parameterUnit":"kt","parameterCategory":2,"dx":1,"dy":1,"la1":30.253999710083008,"la2":30.299108505249023,"lo1":-89.0895004272461,"lo2":-89.04439544677734,"nx":28,"ny":28,"refTime":"2022-09-23T21:00:00:Z","depth":"0","parameterNumber":2,"parameterNumberName":"U-component_of_CURRENTS"},"data":[0.1125,0.1261,0.1321,0.1589,0.1687,0.1904,0.205,0.2336,0.2666,0.3383,0.3966,0.4362,0.5087,0.6101,0.6493,0.6346,0.5754,0.5697,0.5194,0.5607,0.5505,0.5408,0.5447,0.6359,0.6358,0.5003,0.4994,0.4988,0.1045,0.1108,0.1181,0.1299,0.1438,0.1421,0.1629,0.1826,0.2247,0.2679,0.3114,0.4071,0.4846,0.52,0.5769,0.5711,0.5231,0.5558,0.5055,0.4874,0.5143,0.5206,0.6082,0.6082,0.6082,0.6082,0.6082,0.6082,0.0917,0.0948,0.0982,0.1066,0.1131,0.1271,0.1412,0.1592,0.1867,0.2289,0.2431,0.301,0.3717,0.4289,0.4301,0.4669,0.4017,0.4661,0.4446,0.3939,0.385,0.402,0.4631,0.4625,0.462,0.4616,0.4612,0,0.0856,0.0851,0.0834,0.0905,0.0962,0.1024,0.1133,0.125,0.1371,0.1605,0.1968,0.2254,0.2752,0.3298,0.3589,0.3645,0.3242,0.3488,0.353,0.3837,0.3427,0.3338,0.3244,0.3757,0.3746,0.3738,0.3732,0.3727,0.0839,0.0807,0.0768,0.0799,0.0785,0.0818,0.0892,0.0936,0.1062,0.1316,0.1462,0.1788,0.211,0.2515,0.2673,0.29,0.2574,0.3236,0.3036,0.3163,0.3027,0.2546,0.2429,0.3611,0.3626,0.3638,0.3647,0,0.0856,0.0794,0.0739,0.0686,0.0692,0.0699,0.0786,0.0868,0.0942,0.1146,0.1215,0.1386,0.1683,0.1765,0.1934,0.1924,0.2148,0.2188,0.2601,0.2714,0.3005,0.2838,0.281,0.2721,0.255,0.2558,0.2565,0,0.0855,0.0806,0.0744,0.0706,0.0697,0.0653,0.0707,0.0723,0.0829,0.0962,0.0983,0.1164,0.1182,0.1373,0.1383,0.167,0.16,0.1692,0.1764,0.2074,0.2122,0.2304,0.216,0.1452,0.1449,0.1447,0.1445,0,0.0903,0.0807,0.0742,0.0709,0.065,0.0638,0.0638,0.0665,0.0719,0.0817,0.093,0.0973,0.1106,0.1143,0.1267,0.1154,0.1484,0.135,0.1626,0.1647,0.2084,0.214,0.2467,0.1441,0.144,0.1439,0.1438,0,0.0908,0.0857,0.0768,0.0714,0.07,0.0667,0.0672,0.0654,0.0707,0.0744,0.0792,0.0852,0.0909,0.0861,0.1008,0.0935,0.0998,0.1051,0.1065,0.1337,0.1368,0.2041,0.2257,0.2367,0.1262,0.1259,0.1257,0,0.0955,0.0869,0.0844,0.0765,0.0719,0.0708,0.0677,0.066,0.0679,0.0729,0.0732,0.0782,0.0711,0.0766,0.0761,0.0861,0.0904,0.0766,0.1072,0.1083,0.1316,0.1407,0.1817,0.2179,0.122,0.1224,0.1226,0,0.1,0.0928,0.0919,0.0883,0.0826,0.0809,0.0756,0.0729,0.0751,0.072,0.0762,0.068,0.0741,0.0733,0.0735,0.0757,0.0853,0.0789,0.0794,0.0954,0.1085,0.1328,0.1377,0.0843,0.0845,0.0847,0.1197,0,0.0997,0.0961,0.0945,0.0896,0.0874,0.0841,0.0818,0.0805,0.0807,0.0806,0.0797,0.0794,0.0808,0.0764,0.0751,0.0758,0.0831,0.0811,0.0857,0.083,0.0989,0.1012,0.0764,0.0766,0.0767,0.0768,0,0,0.1042,0.1007,0.1018,0.0977,0.0955,0.097,0.0926,0.0912,0.0894,0.0895,0.0899,0.0887,0.0864,0.0836,0.0797,0.0786,0.0876,0.0797,0.0821,0.0827,0.0832,0.0982,0.1002,0.077,0.077,0.0771,0.0771,0,0.1045,0.1047,0.1028,0.1004,0.0988,0.0983,0.0976,0.0966,0.0959,0.0923,0.0939,0.0928,0.0891,0.0879,0.0866,0.0805,0.0896,0.0786,0.0759,0.0828,0.0832,0.0836,0.0983,0.1,0.0774,0.0774,0.0774,0,0.1065,0.1057,0.1055,0.1033,0.1031,0.0997,0.1031,0.1019,0.0986,0.1023,0.0986,0.099,0.098,0.0935,0.0918,0.0933,0.0939,0.0878,0.0872,0.0899,0.0975,0.0978,0.098,0.096,0.096,0.096,0,0,0.1065,0.1057,0.1045,0.1033,0.1028,0.1031,0.103,0.1029,0.1025,0.1024,0.1023,0.1016,0.0994,0.098,0.0969,0.093,0.1015,0.09,0.0891,0.0884,0.0905,0.0979,0.098,0.0962,0.0962,0.0962,0,0,0.1067,0.1061,0.1062,0.1049,0.1035,0.1036,0.1035,0.1041,0.1035,0.1041,0.105,0.1048,0.1013,0.1017,0.104,0.0966,0.1003,0.0999,0.0956,0.0945,0.0936,0.0966,0.106,0,0,0,0,0,0.1071,0.106,0.1061,0.1059,0.1052,0.1033,0.1033,0.1044,0.1064,0.105,0.1053,0.1065,0.1024,0.1045,0.1043,0.1001,0.0985,0.0981,0.0977,0.0914,0.0902,0.0893,0,0,0,0,0,0,0.107,0.1066,0.1062,0.1062,0.1061,0.1034,0.106,0.1063,0.1064,0.1066,0.1065,0.1065,0.1069,0.1046,0.1045,0.1004,0.1061,0.0984,0.098,0.0977,0.091,0.0901,0.0893,0,0,0,0,0,0.1069,0.1066,0.1049,0.1062,0.1062,0.1072,0.106,0.1063,0.1063,0.1067,0.1067,0.1071,0.1068,0.1067,0.1045,0.1004,0.1062,0.1062,0.0982,0.0979,0.0976,0.0905,0,0,0,0,0,0,0.1069,0.1071,0.105,0.1051,0.1067,0.1074,0.1073,0.1063,0.1064,0.1065,0.1072,0.1073,0.1068,0.1067,0.1066,0.1002,0.1063,0.1063,0.1062,0.0979,0.0977,0.0975,0,0,0,0,0,0,0.1073,0.1071,0.105,0.1054,0.1056,0.1075,0.1074,0.1065,0.1063,0.1069,0.1071,0.1073,0.1066,0.1067,0.1066,0.1051,0.1064,0.1064,0.1063,0.1063,0.0978,0.0976,0,0,0,0,0,0,0.1073,0.1071,0.1054,0.1055,0.1057,0.1067,0.1066,0.1056,0.1076,0.1068,0.1077,0.1078,0.1065,0.1065,0.1066,0.1052,0.1051,0.1064,0.1064,0.1063,0.1063,0,0,0,0,0,0,0,0.1073,0.1074,0.1045,0.1056,0.1057,0.1059,0.1059,0.1059,0.1076,0.1077,0.1077,0.1078,0.1068,0.1068,0.1067,0.1052,0,0,0.1064,0.1064,0,0,0,0,0,0,0,0,0.1076,0.1075,0.1045,0.1045,0.1046,0.1059,0.1059,0.1059,0.1076,0.1077,0.1077,0.1077,0.1068,0.1068,0.1067,0,0,0,0,0,0,0,0,0,0,0,0,0,0,0,0.1045,0.1045,0,0.1059,0.1059,0.1059,0.1076,0.1077,0.1077,0.1077,0.1068,0.1068,0.1067,0,0,0,0,0,0,0,0,0,0,0,0,0,0,0,0,0,0,0,0,0,0,0,0,0,0,0,0,0,0,0,0,0,0,0,0,0,0,0,0,0,0,0,0,0,0,0,0,0,0,0,0,0,0,0,0,0,0,0,0,0,0,0,0,0,0,0,0,0]}],[{"header":{"parameterUnit":"kt","parameterCategory":2,"dx":1,"dy":1,"la1":30.253999710083008,"la2":30.299108505249023,"lo1":-89.0895004272461,"lo2":-89.04439544677734,"nx":28,"ny":28,"refTime":"2022-09-23T21:00:00:Z","depth":"0","parameterNumber":3,"parameterNumberName":"V-component_of_CURRENTS"},"data":[-0.0856,-0.0608,-0.0458,0.0185,0.0477,0.0993,0.126,0.169,0.207,0.2777,0.3238,0.3486,0.3232,0.1308,-0.0064,-0.0504,-0.1159,-0.1257,-0.1719,-0.1113,-0.1107,-0.1101,-0.1135,-0.118,-0.1182,-0.2247,-0.2257,-0.2265,-0.0971,-0.0839,-0.059,-0.0222,0.0127,0.0181,0.0586,0.093,0.1412,0.1779,0.2118,0.2441,0.1959,0.1295,0.0376,-0.0317,-0.0747,-0.0694,-0.0879,-0.1068,-0.0354,-0.0347,-0.0224,-0.0224,-0.0224,-0.0224,-0.0224,-0.0224,-0.1126,-0.1041,-0.0914,-0.0612,-0.037,-0.0058,0.0241,0.0491,0.0843,0.1307,0.1263,0.1653,0.1361,0.0842,0.032,-0.0339,-0.0558,-0.0452,-0.0703,-0.0886,-0.1109,-0.0435,-0.0295,-0.0297,-0.0299,-0.0301,-0.0303,0,-0.1204,-0.1198,-0.1145,-0.087,-0.0661,-0.0429,-0.0159,0.0019,0.0227,0.0465,0.0765,0.0885,0.069,0.0574,0.0144,-0.0103,-0.0699,-0.0464,-0.0667,-0.0718,-0.0947,-0.1167,-0.0503,-0.0326,-0.0329,-0.0331,-0.0333,-0.0334,-0.1206,-0.1244,-0.1155,-0.1019,-0.0975,-0.0775,-0.0572,-0.0424,-0.0221,0.005,0.0212,0.0255,0.0378,0.0161,-0.0174,-0.0435,-0.0736,-0.0512,-0.0602,-0.0813,-0.1066,-0.1271,-0.1457,-0.0363,-0.0359,-0.0356,-0.0354,0,-0.1174,-0.1237,-0.1227,-0.117,-0.1096,-0.0982,-0.0707,-0.0523,-0.0412,-0.0131,-0.008,-0.0031,-0.0056,-0.0247,-0.0367,-0.0578,-0.0818,-0.0739,-0.0579,-0.0569,-0.0847,-0.1071,-0.1237,-0.145,-0.0805,-0.0805,-0.0805,0,-0.116,-0.1172,-0.1192,-0.1217,-0.1078,-0.1079,-0.087,-0.079,-0.0604,-0.039,-0.045,-0.0283,-0.047,-0.0487,-0.0666,-0.0769,-0.0713,-0.0912,-0.0919,-0.0767,-0.076,-0.0884,-0.1101,-0.0866,-0.0867,-0.0867,-0.0868,0,-0.1121,-0.1172,-0.1216,-0.1233,-0.1212,-0.1152,-0.1076,-0.0956,-0.0831,-0.0705,-0.058,-0.0591,-0.0536,-0.0633,-0.0784,-0.0842,-0.0804,-0.0875,-0.0948,-0.0951,-0.0768,-0.076,-0.0811,-0.0868,-0.0868,-0.0868,-0.0869,0,-0.1138,-0.1179,-0.125,-0.1212,-0.1206,-0.1191,-0.1062,-0.1033,-0.0913,-0.0864,-0.0807,-0.0793,-0.0793,-0.0889,-0.0931,-0.0961,-0.1028,-0.1065,-0.1063,-0.1066,-0.1117,-0.0882,-0.0801,-0.0975,-0.108,-0.1082,-0.1083,0,-0.1095,-0.1186,-0.1225,-0.1246,-0.1281,-0.1268,-0.1237,-0.1201,-0.1161,-0.106,-0.1066,-0.0998,-0.1137,-0.1091,-0.1115,-0.1137,-0.1138,-0.1189,-0.1123,-0.1121,-0.1117,-0.1081,-0.0897,-0.0833,-0.1102,-0.11,-0.1098,0,-0.1075,-0.119,-0.1194,-0.1205,-0.1264,-0.125,-0.1268,-0.1244,-0.116,-0.1217,-0.1108,-0.1201,-0.1163,-0.1173,-0.1202,-0.1197,-0.1174,-0.1247,-0.1245,-0.1204,-0.1087,-0.1107,-0.1097,-0.1172,-0.1169,-0.1167,-0.1113,0,-0.1147,-0.1173,-0.1187,-0.1239,-0.1242,-0.1264,-0.1281,-0.1274,-0.1273,-0.1262,-0.1229,-0.1264,-0.1238,-0.1284,-0.133,-0.129,-0.1306,-0.1311,-0.1288,-0.1279,-0.1265,-0.1253,-0.1394,-0.1395,-0.1395,-0.1395,0,0,-0.1109,-0.1152,-0.116,-0.1202,-0.1208,-0.1211,-0.1235,-0.1248,-0.1273,-0.1241,-0.1277,-0.1276,-0.1317,-0.1289,-0.1327,-0.1355,-0.134,-0.1346,-0.1308,-0.1299,-0.129,-0.1274,-0.1263,-0.1395,-0.1395,-0.1395,-0.1395,0,-0.1146,-0.1138,-0.1158,-0.1181,-0.1202,-0.1212,-0.1214,-0.1239,-0.1239,-0.1268,-0.1271,-0.1271,-0.1328,-0.1324,-0.1334,-0.1359,-0.1342,-0.1394,-0.1361,-0.1312,-0.1303,-0.1294,-0.1277,-0.1266,-0.1396,-0.1396,-0.1396,0,-0.1157,-0.1172,-0.1167,-0.1187,-0.1194,-0.1222,-0.121,-0.1218,-0.1231,-0.1236,-0.1258,-0.1271,-0.1295,-0.1324,-0.1336,-0.1334,-0.1333,-0.1366,-0.1366,-0.1331,-0.1279,-0.1269,-0.1261,-0.1358,-0.1358,-0.1358,0,0,-0.1181,-0.1186,-0.1204,-0.1192,-0.1203,-0.1209,-0.1211,-0.1216,-0.123,-0.1233,-0.1247,-0.1267,-0.1287,-0.1297,-0.132,-0.1346,-0.1315,-0.1359,-0.1361,-0.1362,-0.1329,-0.1277,-0.1269,-0.1356,-0.1356,-0.1356,0,0,-0.1188,-0.1209,-0.1202,-0.1198,-0.1208,-0.1224,-0.1221,-0.1221,-0.1233,-0.123,-0.124,-0.1244,-0.1267,-0.1282,-0.1264,-0.1316,-0.1312,-0.1316,-0.1296,-0.1298,-0.13,-0.1251,-0.1262,0,0,0,0,0,-0.1214,-0.121,-0.1203,-0.1202,-0.1208,-0.1226,-0.1228,-0.1225,-0.1214,-0.1219,-0.123,-0.1228,-0.1282,-0.1265,-0.127,-0.1279,-0.134,-0.1343,-0.1345,-0.1326,-0.1328,-0.133,0,0,0,0,0,0,-0.1214,-0.1214,-0.1204,-0.1218,-0.1219,-0.1226,-0.1218,-0.1218,-0.1213,-0.1212,-0.1227,-0.1229,-0.124,-0.1263,-0.1267,-0.1276,-0.126,-0.1341,-0.1343,-0.1346,-0.1327,-0.1329,-0.133,0,0,0,0,0,-0.1214,-0.1214,-0.1219,-0.1218,-0.1219,-0.1216,-0.1218,-0.1218,-0.1215,-0.1229,-0.1231,-0.121,-0.124,-0.1244,-0.1266,-0.1273,-0.1257,-0.1259,-0.1342,-0.1344,-0.1346,-0.1328,0,0,0,0,0,0,-0.1213,-0.1221,-0.122,-0.122,-0.121,-0.1216,-0.1216,-0.1217,-0.1233,-0.1234,-0.1215,-0.1214,-0.1241,-0.1244,-0.1247,-0.1272,-0.1255,-0.1256,-0.1257,-0.1344,-0.1345,-0.1347,0,0,0,0,0,0,-0.1221,-0.1222,-0.122,-0.1211,-0.121,-0.1215,-0.1216,-0.1235,-0.1234,-0.1218,-0.1217,-0.1214,-0.1235,-0.1243,-0.1246,-0.1276,-0.1253,-0.1254,-0.1255,-0.1256,-0.1345,-0.1346,0,0,0,0,0,0,-0.1221,-0.1222,-0.1211,-0.121,-0.121,-0.1216,-0.1233,-0.124,-0.1219,-0.1218,-0.1217,-0.1216,-0.1235,-0.1238,-0.1245,-0.1275,-0.1276,-0.1253,-0.1254,-0.1255,-0.1255,0,0,0,0,0,0,0,-0.1222,-0.1216,-0.1214,-0.121,-0.121,-0.1222,-0.1223,-0.1223,-0.1219,-0.1218,-0.1217,-0.1217,-0.1244,-0.1245,-0.1247,-0.1273,0,0,-0.1253,-0.1253,0,0,0,0,0,0,0,0,-0.1216,-0.1216,-0.1214,-0.1214,-0.1213,-0.1222,-0.1223,-0.1223,-0.1219,-0.1218,-0.1217,-0.1217,-0.1244,-0.1245,-0.1247,0,0,0,0,0,0,0,0,0,0,0,0,0,0,0,-0.1214,-0.1214,0,-0.1222,-0.1223,-0.1223,-0.1219,-0.1218,-0.1218,-0.1217,-0.1244,-0.1246,-0.1247,0,0,0,0,0,0,0,0,0,0,0,0,0,0,0,0,0,0,0,0,0,0,0,0,0,0,0,0,0,0,0,0,0,0,0,0,0,0,0,0,0,0,0,0,0,0,0,0,0,0,0,0,0,0,0,0,0,0,0,0,0,0,0,0,0,0,0,0,0]}]],[[{"header":{"parameterUnit":"kt","parameterCategory":2,"dx":1,"dy":1,"la1":30.253999710083008,"la2":30.299108505249023,"lo1":-89.0895004272461,"lo2":-89.04439544677734,"nx":28,"ny":28,"refTime":"2022-09-23T21:00:00:Z","depth":"2","parameterNumber":2,"parameterNumberName":"U-component_of_CURRENTS"},"data":[0.1277,0.132,0.1337,0.1442,0.1502,0.1628,0.1726,0.1839,0.1959,0.2029,0.2064,0.2278,0.2287,0.1852,0.174,0.1597,0.1711,0.1508,0.2519,0.2046,0.2086,0.2103,0.1836,0,0,0,0,0,0.1234,0.1255,0.1302,0.1382,0.1451,0.15,0.1675,0.1761,0.2019,0.2232,0.2519,0.2286,0.2342,0.2388,0.2263,0.2357,0.215,0.2197,0.1765,0.1808,0.1847,0.1646,0.1418,0.1417,0.1416,0.1415,0,0,0.1174,0.1197,0.1215,0.1294,0.1367,0.1482,0.1584,0.1757,0.1986,0.226,0.2526,0.2755,0.2714,0.2961,0.2978,0.2921,0.3146,0.2817,0.2815,0.2822,0.2686,0.2593,0.2724,0.2731,0.2737,0.2742,0.2746,0,0.1145,0.1145,0.1166,0.1229,0.1305,0.1409,0.1547,0.1648,0.1868,0.2078,0.2431,0.2683,0.3058,0.3095,0.334,0.3348,0.3076,0.3071,0.3623,0.2346,0.2231,0.2233,0.2232,0.2322,0.2327,0.233,0.2333,0.2335,0.114,0.1127,0.1172,0.1211,0.1236,0.1332,0.1426,0.1572,0.171,0.2035,0.2166,0.2497,0.2782,0.3216,0.3298,0.3521,0.3501,0.3151,0.2925,0.331,0.3324,0.329,0.3258,0.2384,0.2378,0.2373,0.2369,0,0.1152,0.1139,0.1162,0.1216,0.1246,0.1307,0.1468,0.1582,0.1721,0.1949,0.2018,0.2273,0.2574,0.2738,0.3001,0.3043,0.3253,0.3325,0.2739,0.2721,0.3241,0.3216,0.3569,0.3575,0.358,0.3585,0.3589,0,0.1171,0.1185,0.1197,0.1199,0.1269,0.1327,0.145,0.1546,0.1721,0.1891,0.1997,0.218,0.2325,0.2535,0.2613,0.2881,0.2887,0.2949,0.3001,0.2497,0.2463,0.2751,0.2731,0.2898,0.2896,0.2894,0.2892,0,0.1206,0.1217,0.1211,0.1226,0.1299,0.1342,0.141,0.1562,0.1667,0.1851,0.1956,0.2128,0.2249,0.2378,0.252,0.2442,0.2794,0.2717,0.2888,0.2895,0.2523,0.2492,0.289,0.2889,0.2889,0.2888,0.2887,0,0.1235,0.1228,0.1215,0.1293,0.1308,0.1335,0.148,0.1541,0.1713,0.1784,0.1906,0.1997,0.2142,0.2086,0.2331,0.2241,0.2323,0.2398,0.2411,0.2542,0.2528,0.2265,0.2313,0.2542,0.2538,0.2535,0.2531,0,0.1283,0.1251,0.1268,0.129,0.1295,0.1369,0.1427,0.1515,0.1597,0.1713,0.1807,0.1918,0.1882,0.1938,0.2007,0.214,0.2221,0.2074,0.2368,0.2377,0.2456,0.2592,0.2057,0.227,0.2487,0.2492,0.2495,0,0.132,0.131,0.1312,0.1331,0.1364,0.1388,0.1433,0.1516,0.1594,0.1628,0.1743,0.1804,0.1855,0.1905,0.1946,0.2018,0.215,0.2026,0.2033,0.2132,0.2419,0.2517,0.2557,0.2171,0.2175,0.2179,0.246,0,0.137,0.1365,0.135,0.1361,0.1384,0.1386,0.1445,0.1477,0.1516,0.1574,0.1677,0.1731,0.1829,0.1831,0.1849,0.1963,0.1989,0.199,0.1996,0.2038,0.2153,0.2181,0.1864,0.1865,0.1866,0.1866,0,0,0.1428,0.1406,0.1422,0.1409,0.143,0.1475,0.1477,0.1511,0.1556,0.1607,0.1589,0.1732,0.176,0.1874,0.1871,0.188,0.1955,0.1868,0.1999,0.2013,0.2026,0.2138,0.2164,0.1867,0.1867,0.1867,0.1867,0,0.1444,0.1452,0.1425,0.1442,0.146,0.1488,0.149,0.152,0.1551,0.1586,0.1647,0.1703,0.1748,0.1814,0.1854,0.1879,0.1941,0.1877,0.188,0.1998,0.2011,0.2024,0.2135,0.2158,0.1868,0.1868,0.1868,0,0.149,0.1493,0.1488,0.1496,0.1512,0.152,0.1552,0.1555,0.1582,0.1629,0.1663,0.1708,0.1775,0.1813,0.1833,0.1829,0.1939,0.1861,0.186,0.1882,0.2006,0.202,0.2033,0.1873,0.1872,0.1872,0,0,0.1505,0.149,0.1518,0.1504,0.1509,0.1546,0.1554,0.1575,0.161,0.1626,0.1661,0.1709,0.1765,0.1782,0.1824,0.1846,0.1921,0.1859,0.1858,0.1858,0.1879,0.2002,0.2015,0.1871,0.1871,0.1871,0,0,0.1517,0.153,0.1551,0.1529,0.1552,0.1582,0.1575,0.1604,0.1639,0.1645,0.1696,0.1708,0.1752,0.1772,0.1755,0.1817,0.1822,0.1826,0.179,0.1791,0.1791,0.1807,0.1772,0,0,0,0,0,0.1554,0.1527,0.1545,0.1546,0.1563,0.1574,0.1578,0.1607,0.1627,0.1625,0.1675,0.1686,0.178,0.1766,0.1773,0.1779,0.1858,0.186,0.1863,0.1824,0.1824,0.1824,0,0,0,0,0,0,0.1555,0.1555,0.1546,0.1572,0.1577,0.1575,0.1606,0.1613,0.1628,0.1632,0.1679,0.1688,0.1716,0.1763,0.177,0.1774,0.177,0.1859,0.1861,0.1863,0.1824,0.1824,0.1824,0,0,0,0,0,0.1555,0.1556,0.1572,0.1573,0.1577,0.1611,0.1606,0.1613,0.1627,0.1669,0.1678,0.1648,0.1715,0.1724,0.1767,0.1771,0.1765,0.1768,0.186,0.1862,0.1863,0.1824,0,0,0,0,0,0,0.1556,0.1566,0.1574,0.1577,0.158,0.1612,0.1617,0.1612,0.1664,0.1672,0.1641,0.1644,0.1714,0.1721,0.1727,0.1768,0.1762,0.1764,0.1766,0.1861,0.1863,0.1864,0,0,0,0,0,0,0.1567,0.1568,0.1576,0.1582,0.1586,0.1613,0.1617,0.1639,0.1665,0.1633,0.1637,0.1641,0.1711,0.1719,0.1724,0.1758,0.1759,0.1761,0.1763,0.1764,0.1862,0.1863,0,0,0,0,0,0,0.1568,0.157,0.1582,0.1585,0.1588,0.1625,0.1635,0.1656,0.1655,0.1631,0.1658,0.1659,0.1708,0.1714,0.1722,0.1752,0.1756,0.1759,0.1761,0.1762,0.1763,0,0,0,0,0,0,0,0.157,0.1547,0.1555,0.1587,0.159,0.1605,0.1605,0.1606,0.1656,0.1656,0.1657,0.1658,0.1745,0.1748,0.1751,0.1748,0,0,0.1759,0.176,0,0,0,0,0,0,0,0,0.1547,0.1547,0.1555,0.1556,0.1557,0.1605,0.1605,0.1606,0.1656,0.1656,0.1657,0.1658,0.1746,0.1748,0.175,0,0,0,0,0,0,0,0,0,0,0,0,0,0,0,0.1556,0.1556,0,0.1605,0.1605,0.1606,0.1656,0.1656,0.1657,0.1658,0.1747,0.1748,0.175,0,0,0,0,0,0,0,0,0,0,0,0,0,0,0,0,0,0,0,0,0,0,0,0,0,0,0,0,0,0,0,0,0,0,0,0,0,0,0,0,0,0,0,0,0,0,0,0,0,0,0,0,0,0,0,0,0,0,0,0,0,0,0,0,0,0,0,0,0]}],[{"header":{"parameterUnit":"kt","parameterCategory":2,"dx":1,"dy":1,"la1":30.253999710083008,"la2":30.299108505249023,"lo1":-89.0895004272461,"lo2":-89.04439544677734,"nx":28,"ny":28,"refTime":"2022-09-23T21:00:00:Z","depth":"2","parameterNumber":3,"parameterNumberName":"V-component_of_CURRENTS"},"data":[0.0208,0.0201,0.0219,0.0337,0.0418,0.0632,0.0799,0.12,0.1413,0.167,0.1647,0.1744,0.096,0.0446,-0.0024,-0.0385,-0.0387,-0.0414,-0.0274,-0.0173,-0.0158,-0.0515,-0.0427,0,0,0,0,0,0.0227,0.0228,0.0257,0.0325,0.0414,0.0459,0.0674,0.0899,0.1228,0.1428,0.1686,0.1221,0.0933,0.0405,-0.019,-0.0501,-0.0485,-0.0661,-0.0634,-0.0623,-0.0615,-0.0567,-0.0714,-0.0715,-0.0716,-0.0717,0,0,0.0268,0.0264,0.0276,0.0316,0.0378,0.0503,0.0619,0.0781,0.0972,0.1268,0.1257,0.134,0.089,0.0427,0.0074,-0.0341,-0.0298,-0.0523,-0.0519,-0.0513,-0.0462,-0.042,-0.058,-0.058,-0.058,-0.0579,-0.0579,0,0.0311,0.0301,0.0321,0.0361,0.0396,0.0476,0.0549,0.0619,0.0727,0.0848,0.1001,0.1066,0.0806,0.0547,0.0138,-0.0046,-0.0333,-0.0415,-0.0337,-0.0367,-0.0323,-0.0329,-0.0311,-0.0474,-0.0473,-0.0472,-0.0472,-0.0471,0.0341,0.0344,0.0388,0.0412,0.043,0.0462,0.0503,0.0565,0.0626,0.0716,0.0754,0.0682,0.073,0.0425,0.0152,-0.0121,-0.0189,-0.0387,-0.0383,-0.0265,-0.0275,-0.0258,-0.0241,-0.0462,-0.0463,-0.0464,-0.0465,0,0.0358,0.0393,0.0424,0.0477,0.0493,0.0497,0.0571,0.0596,0.0616,0.0667,0.0663,0.0655,0.0543,0.0377,0.0156,0.0021,-0.016,-0.0238,-0.0209,-0.0231,-0.0243,-0.0228,-0.0407,-0.0408,-0.041,-0.0411,-0.0412,0,0.0408,0.0429,0.048,0.0494,0.0515,0.0567,0.0576,0.0592,0.0616,0.0655,0.0607,0.062,0.0455,0.0354,0.0209,0.0023,0.0008,-0.0119,-0.0148,-0.0143,-0.0141,-0.0066,-0.0054,-0.0156,-0.0154,-0.0153,-0.0152,0,0.0414,0.0491,0.0508,0.0533,0.0604,0.0601,0.0627,0.0636,0.0657,0.0623,0.0626,0.053,0.0491,0.034,0.0222,0.0227,0.0032,0.0025,-0.0094,-0.0094,-0.0152,-0.0152,-0.0151,-0.015,-0.015,-0.0149,-0.0149,0,0.0459,0.0496,0.053,0.0596,0.0607,0.0626,0.0638,0.0663,0.0649,0.0635,0.0587,0.0557,0.0483,0.0448,0.0279,0.0333,0.0216,0.0149,0.0141,0.0125,0.0131,-0.0024,-0.0098,0.0058,0.006,0.0063,0.0064,0,0.0458,0.0504,0.0535,0.0583,0.0613,0.0634,0.0653,0.0661,0.0652,0.0634,0.0581,0.0556,0.0523,0.0494,0.0422,0.0358,0.0265,0.0354,0.0163,0.0158,0.0154,0.01,0.0087,-0.0062,0.0091,0.0088,0.0086,0,0.045,0.0513,0.0514,0.0538,0.0585,0.0604,0.0624,0.0637,0.0627,0.0609,0.0584,0.0555,0.0512,0.0498,0.0472,0.0407,0.0309,0.0373,0.0369,0.0297,0.0132,0.0136,0.0119,0.028,0.0277,0.0275,0.0107,0,0.0481,0.0503,0.0513,0.0548,0.0572,0.0592,0.0612,0.0614,0.0594,0.0591,0.0558,0.0537,0.0504,0.0496,0.049,0.0428,0.0405,0.0401,0.0374,0.0361,0.0293,0.0276,0.0467,0.0466,0.0466,0.0466,0,0,0.0464,0.0483,0.0493,0.052,0.0536,0.054,0.0564,0.0573,0.0581,0.0568,0.0555,0.0516,0.0501,0.0479,0.048,0.0482,0.0428,0.0453,0.0386,0.0377,0.0369,0.0302,0.0287,0.0465,0.0465,0.0465,0.0465,0,0.0472,0.0472,0.0483,0.0509,0.0527,0.0542,0.0542,0.0556,0.0548,0.0557,0.0533,0.0509,0.0501,0.0482,0.0473,0.0482,0.0414,0.0472,0.0461,0.0386,0.0378,0.0371,0.0304,0.029,0.0464,0.0465,0.0465,0,0.0468,0.0478,0.0481,0.0507,0.0516,0.0544,0.0525,0.0536,0.0548,0.0522,0.0518,0.0501,0.0485,0.0479,0.047,0.046,0.0395,0.0441,0.0443,0.043,0.0351,0.0343,0.0336,0.0424,0.0424,0.0424,0,0,0.0473,0.0481,0.0504,0.051,0.0518,0.0526,0.0532,0.0531,0.0534,0.0529,0.0512,0.0491,0.0482,0.0468,0.0463,0.0455,0.0408,0.0437,0.0439,0.044,0.0429,0.0351,0.0344,0.0423,0.0423,0.0423,0,0,0.0475,0.0493,0.0489,0.0497,0.0519,0.0539,0.054,0.0535,0.0532,0.0514,0.0494,0.0488,0.0476,0.0463,0.0462,0.0437,0.0429,0.043,0.0441,0.0443,0.0445,0.0433,0.0427,0,0,0,0,0,0.049,0.0495,0.0491,0.0494,0.0512,0.0544,0.0547,0.054,0.0512,0.0523,0.0506,0.0476,0.0462,0.0461,0.0457,0.0437,0.0418,0.0419,0.042,0.0433,0.0436,0.0438,0,0,0,0,0,0,0.0491,0.0494,0.0491,0.051,0.0514,0.0543,0.0517,0.0516,0.0511,0.0507,0.0483,0.0476,0.0465,0.046,0.0457,0.0438,0.0428,0.0418,0.0419,0.042,0.0434,0.0436,0.0438,0,0,0,0,0,0.0492,0.0495,0.0521,0.051,0.0513,0.051,0.0516,0.0515,0.0507,0.0493,0.0486,0.0497,0.0467,0.0461,0.0458,0.044,0.043,0.0429,0.0419,0.0419,0.042,0.0435,0,0,0,0,0,0,0.0492,0.0498,0.0521,0.0523,0.0495,0.0508,0.0509,0.0514,0.0491,0.0487,0.0507,0.0504,0.0468,0.0463,0.0459,0.0442,0.0432,0.0431,0.043,0.0419,0.042,0.042,0,0,0,0,0,0,0.0497,0.0499,0.0522,0.0503,0.0502,0.0507,0.0507,0.0501,0.0489,0.0506,0.0504,0.0506,0.0455,0.0465,0.0462,0.0455,0.0433,0.0432,0.0431,0.0431,0.042,0.042,0,0,0,0,0,0,0.0498,0.05,0.0503,0.0502,0.0501,0.0516,0.0499,0.0506,0.0509,0.0506,0.0505,0.0503,0.0457,0.0454,0.0464,0.0459,0.0456,0.0433,0.0432,0.0432,0.0431,0,0,0,0,0,0,0,0.0499,0.0482,0.0513,0.0501,0.0501,0.0534,0.0535,0.0535,0.0508,0.0507,0.0505,0.0504,0.0439,0.0438,0.0436,0.0462,0,0,0.0433,0.0432,0,0,0,0,0,0,0,0,0.0481,0.0482,0.0513,0.0513,0.0513,0.0534,0.0535,0.0535,0.0508,0.0507,0.0505,0.0504,0.0438,0.0437,0.0437,0,0,0,0,0,0,0,0,0,0,0,0,0,0,0,0.0513,0.0513,0,0.0534,0.0535,0.0535,0.0508,0.0507,0.0506,0.0505,0.0438,0.0437,0.0437,0,0,0,0,0,0,0,0,0,0,0,0,0,0,0,0,0,0,0,0,0,0,0,0,0,0,0,0,0,0,0,0,0,0,0,0,0,0,0,0,0,0,0,0,0,0,0,0,0,0,0,0,0,0,0,0,0,0,0,0,0,0,0,0,0,0,0,0,0]}]],[[{"header":{"parameterUnit":"kt","parameterCategory":2,"dx":1,"dy":1,"la1":30.253999710083008,"la2":30.299108505249023,"lo1":-89.0895004272461,"lo2":-89.04439544677734,"nx":28,"ny":28,"refTime":"2022-09-23T21:00:00:Z","depth":"4","parameterNumber":2,"parameterNumberName":"U-component_of_CURRENTS"},"data":[0.0438,0.0488,0.0524,0.0573,0.0624,0.0712,0.0774,0.0862,0.083,0.0991,0.0952,0.1159,0.1122,0.1209,0.1168,0.1189,0.1148,0.1351,0.135,0.13,0.13,0.1299,0.1134,0,0,0,0,0,0.0488,0.0504,0.0573,0.0669,0.0778,0.0852,0.0953,0.0999,0.1143,0.1118,0.1196,0.1194,0.1224,0.1208,0.1189,0.1299,0.128,0.128,0.1232,0.13,0.1299,0.1138,0,0,0,0,0,0,0.0554,0.0575,0.0684,0.079,0.0904,0.0946,0.0993,0.1048,0.1097,0.1262,0.1254,0.1305,0.1382,0.1339,0.1362,0.1374,0.1283,0.1243,0.1245,0.1245,0.1111,0.1146,0.1214,0,0,0,0,0,0.0616,0.0701,0.0765,0.0892,0.099,0.1063,0.1155,0.1166,0.1274,0.139,0.1384,0.1392,0.1419,0.1347,0.143,0.1377,0.1399,0.1424,0.1419,0.1188,0.1228,0.1224,0.1215,0.1297,0.1297,0.1297,0.1297,0,0.0707,0.075,0.0918,0.0977,0.1058,0.1156,0.1218,0.1308,0.1321,0.144,0.1428,0.1483,0.1451,0.143,0.1401,0.1404,0.1344,0.1425,0.1179,0.1226,0.1224,0.1215,0.1207,0.1296,0.1296,0.1296,0.1296,0,0.0747,0.0852,0.093,0.1077,0.1134,0.1186,0.1312,0.1331,0.1393,0.1421,0.1415,0.1398,0.1382,0.1396,0.1363,0.1315,0.1289,0.129,0.135,0.1354,0.1211,0.1202,0.1295,0.1296,0.1296,0.1296,0.1296,0,0.0832,0.0885,0.1043,0.1075,0.1157,0.1245,0.1301,0.1324,0.137,0.1384,0.1331,0.1301,0.1235,0.1263,0.12,0.1189,0.1216,0.1083,0.109,0.103,0.1024,0.1021,0.1013,0.1068,0.1066,0.1065,0.1063,0,0.0869,0.098,0.1048,0.1089,0.1206,0.1257,0.1306,0.1347,0.1358,0.1326,0.1333,0.124,0.1217,0.1157,0.1124,0.1057,0.1145,0.1054,0.1054,0.1058,0.1008,0.1003,0.1061,0.1061,0.106,0.106,0.1059,0,0.0933,0.0988,0.1067,0.1165,0.119,0.125,0.1318,0.1334,0.1338,0.1313,0.1242,0.1182,0.1112,0.1039,0.1004,0.0964,0.096,0.0946,0.0953,0.0908,0.0896,0.1059,0.1074,0.1072,0.1071,0.107,0.1069,0,0.0948,0.1019,0.1065,0.1147,0.1189,0.1256,0.1286,0.1312,0.1303,0.1292,0.1196,0.1127,0.1038,0.098,0.0937,0.0889,0.0906,0.0843,0.0912,0.0917,0.0922,0.0922,0.0818,0.1051,0.1054,0.1055,0.1056,0,0.094,0.1044,0.106,0.1114,0.1205,0.1226,0.1266,0.1281,0.1302,0.1252,0.1235,0.1079,0.1031,0.0968,0.0883,0.0856,0.0892,0.0822,0.082,0.0961,0.0943,0.0911,0.0919,0.0819,0.0819,0.0819,0.1044,0,0.0971,0.1034,0.1056,0.1132,0.1174,0.1213,0.1233,0.1263,0.1275,0.1254,0.1183,0.1085,0.0992,0.0941,0.0882,0.0822,0.0857,0.0799,0.0822,0.0795,0.09,0.091,0.0788,0.0788,0.0787,0.0787,0,0,0.0963,0.0998,0.1042,0.1083,0.1115,0.1175,0.1208,0.1221,0.1227,0.1215,0.1216,0.106,0.1007,0.0909,0.0871,0.0832,0.0857,0.0836,0.0791,0.0791,0.0791,0.0891,0.09,0.0786,0.0786,0.0786,0.0786,0,0.0935,0.0999,0.103,0.1068,0.1128,0.1138,0.1175,0.1192,0.1219,0.1197,0.1162,0.111,0.101,0.0945,0.0894,0.0833,0.0852,0.0787,0.0802,0.0787,0.0788,0.0789,0.0887,0.0896,0.0784,0.0785,0.0785,0,0.0925,0.0951,0.0974,0.102,0.1057,0.1085,0.1105,0.1158,0.1178,0.1145,0.1166,0.1102,0.1015,0.0942,0.092,0.0924,0.0867,0.084,0.0839,0.0853,0.0839,0.0839,0.0839,0.0849,0.0849,0.085,0,0,0.0916,0.0955,0.0973,0.1013,0.1034,0.1073,0.1099,0.1137,0.114,0.1168,0.1148,0.1103,0.1033,0.1019,0.0954,0.0893,0.0917,0.0853,0.0849,0.0847,0.086,0.0845,0.0844,0.0853,0.0853,0.0853,0,0,0.0897,0.0922,0.0967,0.0996,0.1034,0.1028,0.1072,0.111,0.1141,0.1167,0.1132,0.1127,0.1092,0.1051,0.1093,0.0953,0.0958,0.0949,0.1,0.0995,0.0992,0.1027,0.1072,0,0,0,0,0,0.089,0.0907,0.0947,0.0955,0.0993,0.1003,0.101,0.1069,0.1121,0.1168,0.1156,0.1151,0.1047,0.1083,0.1069,0.1037,0.0887,0.0881,0.0875,0.0925,0.092,0.0916,0,0,0,0,0,0,0.0893,0.0901,0.0945,0.0936,0.0944,0.1002,0.1024,0.104,0.112,0.1137,0.1148,0.1147,0.1106,0.1089,0.1076,0.1046,0.1076,0.0885,0.088,0.0875,0.0923,0.0919,0.0916,0,0,0,0,0,0.0895,0.0901,0.0961,0.0936,0.0943,0.1009,0.1028,0.1042,0.1134,0.1074,0.1082,0.1191,0.1104,0.1096,0.1081,0.1053,0.1085,0.108,0.0881,0.0877,0.0874,0.0921,0,0,0,0,0,0,0.0896,0.091,0.0963,0.0965,0.0972,0.1011,0.1025,0.1044,0.1069,0.1077,0.1104,0.1114,0.11,0.1095,0.1089,0.1056,0.1092,0.1087,0.1084,0.0878,0.0875,0.0872,0,0,0,0,0,0,0.0906,0.0912,0.0964,0.1007,0.1015,0.1013,0.1025,0.0964,0.1066,0.1098,0.1107,0.1107,0.1092,0.1094,0.109,0.0992,0.1097,0.1093,0.1089,0.1088,0.0876,0.0873,0,0,0,0,0,0,0.0909,0.0914,0.1007,0.1013,0.1021,0.1058,0.0957,0.0988,0.1131,0.1094,0.1142,0.1147,0.1088,0.1086,0.1089,0.0993,0.0992,0.1097,0.1094,0.1092,0.109,0,0,0,0,0,0,0,0.0911,0.0873,0.0943,0.1019,0.1026,0.099,0.0991,0.0992,0.1132,0.1136,0.1141,0.1145,0.1122,0.1117,0.1112,0.0994,0,0,0.1097,0.1095,0,0,0,0,0,0,0,0,0.0871,0.0873,0.0943,0.0944,0.0944,0.099,0.0991,0.0992,0.1133,0.1136,0.114,0.1143,0.1121,0.1117,0.1113,0,0,0,0,0,0,0,0,0,0,0,0,0,0,0,0.0944,0.0944,0,0.099,0.0991,0.0991,0.1133,0.1136,0.1139,0.1142,0.112,0.1117,0.1113,0,0,0,0,0,0,0,0,0,0,0,0,0,0,0,0,0,0,0,0,0,0,0,0,0,0,0,0,0,0,0,0,0,0,0,0,0,0,0,0,0,0,0,0,0,0,0,0,0,0,0,0,0,0,0,0,0,0,0,0,0,0,0,0,0,0,0,0,0]}],[{"header":{"parameterUnit":"kt","parameterCategory":2,"dx":1,"dy":1,"la1":30.253999710083008,"la2":30.299108505249023,"lo1":-89.0895004272461,"lo2":-89.04439544677734,"nx":28,"ny":28,"refTime":"2022-09-23T21:00:00:Z","depth":"4","parameterNumber":3,"parameterNumberName":"V-component_of_CURRENTS"},"data":[-0.0137,-0.0096,-0.0062,0.0031,0.0064,0.0121,0.0153,0.017,0.0216,0.0228,0.0159,0.0116,-0.0027,0.0071,-0.0166,-0.0202,-0.0334,-0.043,-0.0432,-0.0648,-0.0654,-0.066,-0.0652,0,0,0,0,0,-0.0157,-0.0123,-0.0078,-0.0042,0.0008,0.0015,0.0077,0.0078,0.011,0.0198,0.0162,0.0154,0.0011,-0.0058,-0.0161,-0.0228,-0.0442,-0.0356,-0.0537,-0.0652,-0.0659,-0.0649,0,0,0,0,0,0,-0.0172,-0.0157,-0.0141,-0.0124,-0.0092,-0.0032,-0.0043,0.0022,0.0052,0.0097,0.0143,0.0071,0.0023,-0.0138,-0.022,-0.0333,-0.0404,-0.0477,-0.0492,-0.0501,-0.0465,-0.0434,-0.03,0,0,0,0,0,-0.0182,-0.0212,-0.02,-0.0177,-0.0191,-0.0157,-0.0157,-0.0113,-0.0093,-0.0102,-0.0014,-0.0075,-0.0085,-0.022,-0.0313,-0.0427,-0.0628,-0.0616,-0.0623,-0.0717,-0.0714,-0.0732,-0.074,-0.0685,-0.0686,-0.0687,-0.0687,0,-0.0204,-0.0216,-0.0235,-0.0227,-0.0268,-0.0305,-0.0313,-0.035,-0.0298,-0.0253,-0.0189,-0.0197,-0.0219,-0.0286,-0.0424,-0.057,-0.0596,-0.0632,-0.0732,-0.0726,-0.0741,-0.0747,-0.0752,-0.0693,-0.0692,-0.0692,-0.0691,0,-0.0211,-0.0237,-0.0242,-0.0291,-0.0315,-0.0347,-0.038,-0.0374,-0.0421,-0.0363,-0.0357,-0.0386,-0.0394,-0.0503,-0.0567,-0.0644,-0.0697,-0.0697,-0.0736,-0.0751,-0.0761,-0.0764,-0.0702,-0.07,-0.0698,-0.0697,-0.0696,0,-0.0223,-0.0237,-0.0283,-0.0292,-0.032,-0.0383,-0.0419,-0.0466,-0.0507,-0.0469,-0.0557,-0.0517,-0.0636,-0.0644,-0.0719,-0.0737,-0.0746,-0.0797,-0.0805,-0.0876,-0.0879,-0.0911,-0.0918,-0.0847,-0.0848,-0.0848,-0.0848,0,-0.0236,-0.0262,-0.028,-0.0298,-0.0351,-0.0402,-0.0449,-0.0538,-0.0546,-0.0608,-0.0599,-0.0671,-0.0671,-0.0724,-0.0762,-0.0795,-0.0783,-0.0845,-0.0825,-0.0823,-0.0914,-0.0922,-0.0848,-0.0848,-0.0848,-0.0848,-0.0848,0,-0.0265,-0.0268,-0.0296,-0.0322,-0.0341,-0.0397,-0.0476,-0.0521,-0.0614,-0.0657,-0.071,-0.0759,-0.078,-0.0818,-0.0849,-0.085,-0.0867,-0.0892,-0.0893,-0.0879,-0.0912,-0.0955,-0.0911,-0.0912,-0.0912,-0.0913,-0.0913,0,-0.0255,-0.0273,-0.0307,-0.0349,-0.0367,-0.0455,-0.0502,-0.0588,-0.0661,-0.0722,-0.0794,-0.0839,-0.0888,-0.0895,-0.0903,-0.0933,-0.0922,-0.0936,-0.0967,-0.0968,-0.0904,-0.0852,-0.0936,-0.092,-0.0919,-0.0918,-0.0918,0,-0.025,-0.0298,-0.0314,-0.0331,-0.0432,-0.0463,-0.0537,-0.061,-0.0658,-0.0772,-0.0811,-0.088,-0.092,-0.0949,-0.0982,-0.0979,-0.0934,-0.0994,-0.0996,-0.0961,-0.0915,-0.0867,-0.0859,-0.094,-0.094,-0.0939,-0.0922,0,-0.0239,-0.0281,-0.0302,-0.0369,-0.0415,-0.0473,-0.0545,-0.0628,-0.0726,-0.0782,-0.0871,-0.0944,-0.1008,-0.1022,-0.1046,-0.1033,-0.1042,-0.1067,-0.1072,-0.105,-0.1051,-0.1046,-0.1118,-0.1119,-0.1121,-0.1122,0,0,-0.0228,-0.0263,-0.0325,-0.0353,-0.0388,-0.0506,-0.0541,-0.0611,-0.0756,-0.0799,-0.0852,-0.0986,-0.105,-0.1074,-0.1062,-0.1109,-0.1108,-0.1092,-0.1075,-0.107,-0.1065,-0.1062,-0.1057,-0.1124,-0.1125,-0.1125,-0.1125,0,-0.0211,-0.0276,-0.0304,-0.0349,-0.0439,-0.0483,-0.0528,-0.0632,-0.0707,-0.0811,-0.0879,-0.0954,-0.1061,-0.1078,-0.1101,-0.1125,-0.1132,-0.1137,-0.109,-0.1087,-0.1079,-0.1073,-0.1068,-0.1063,-0.1129,-0.1129,-0.1128,0,-0.0202,-0.0239,-0.0269,-0.0341,-0.0404,-0.0442,-0.0513,-0.0607,-0.0659,-0.0763,-0.0889,-0.0951,-0.1018,-0.1065,-0.1112,-0.1119,-0.115,-0.1165,-0.1161,-0.1159,-0.1157,-0.115,-0.1143,-0.1223,-0.1223,-0.1223,0,0,-0.0191,-0.0233,-0.0291,-0.034,-0.0369,-0.0468,-0.0518,-0.0592,-0.0691,-0.0759,-0.0852,-0.0946,-0.0998,-0.1054,-0.1113,-0.1172,-0.1184,-0.1171,-0.1167,-0.1163,-0.1158,-0.1156,-0.115,-0.1222,-0.1222,-0.1222,0,0,-0.0189,-0.0248,-0.0293,-0.0337,-0.0403,-0.0471,-0.0523,-0.0602,-0.0732,-0.0783,-0.0863,-0.0894,-0.0993,-0.1043,-0.1026,-0.1091,-0.1117,-0.1123,-0.1037,-0.1033,-0.1029,-0.1002,-0.1032,0,0,0,0,0,-0.0207,-0.0226,-0.0265,-0.0281,-0.0383,-0.0439,-0.0457,-0.0556,-0.0636,-0.0687,-0.0802,-0.0829,-0.1034,-0.102,-0.1042,-0.1024,-0.1211,-0.1213,-0.1215,-0.1121,-0.1115,-0.1111,0,0,0,0,0,0,-0.0213,-0.0229,-0.0264,-0.0323,-0.0347,-0.0438,-0.0491,-0.0518,-0.0633,-0.0653,-0.0804,-0.0828,-0.0861,-0.1011,-0.1031,-0.1012,-0.1026,-0.1212,-0.1213,-0.1215,-0.1119,-0.1114,-0.1111,0,0,0,0,0,-0.0218,-0.0231,-0.0374,-0.0325,-0.0345,-0.0466,-0.0494,-0.0518,-0.0643,-0.0702,-0.0734,-0.0726,-0.0856,-0.0883,-0.1023,-0.1001,-0.1013,-0.102,-0.1213,-0.1214,-0.1215,-0.1117,0,0,0,0,0,0,-0.0221,-0.0263,-0.038,-0.039,-0.035,-0.0467,-0.049,-0.0517,-0.0691,-0.0718,-0.0616,-0.0627,-0.0852,-0.0874,-0.0894,-0.0993,-0.1002,-0.1009,-0.1014,-0.1214,-0.1215,-0.1216,0,0,0,0,0,0,-0.0256,-0.027,-0.0386,-0.0411,-0.0426,-0.0468,-0.0488,-0.055,-0.0693,-0.0598,-0.0611,-0.0619,-0.0836,-0.0867,-0.0883,-0.0974,-0.0994,-0.1001,-0.1005,-0.1008,-0.1215,-0.1215,0,0,0,0,0,0,-0.0264,-0.0276,-0.041,-0.0421,-0.0433,-0.0555,-0.0527,-0.0642,-0.0672,-0.059,-0.0682,-0.0686,-0.0828,-0.0846,-0.0875,-0.0958,-0.097,-0.0994,-0.0999,-0.1002,-0.1004,0,0,0,0,0,0,0,-0.027,-0.0162,-0.0315,-0.0429,-0.044,-0.0478,-0.0481,-0.0485,-0.0673,-0.0677,-0.0681,-0.0684,-0.0955,-0.0962,-0.097,-0.0945,0,0,-0.0993,-0.0997,0,0,0,0,0,0,0,0,-0.0159,-0.0162,-0.0315,-0.0317,-0.0318,-0.0478,-0.0481,-0.0484,-0.0674,-0.0677,-0.068,-0.0683,-0.0957,-0.0963,-0.0969,0,0,0,0,0,0,0,0,0,0,0,0,0,0,0,-0.0315,-0.0317,0,-0.0479,-0.0481,-0.0483,-0.0674,-0.0677,-0.0679,-0.0681,-0.0958,-0.0963,-0.0969,0,0,0,0,0,0,0,0,0,0,0,0,0,0,0,0,0,0,0,0,0,0,0,0,0,0,0,0,0,0,0,0,0,0,0,0,0,0,0,0,0,0,0,0,0,0,0,0,0,0,0,0,0,0,0,0,0,0,0,0,0,0,0,0,0,0,0,0,0]}]]]